This is the latest recevied weather packets stored in our database for station/object OE-11399. If no packets are shown the sender has not sent any weather packets the latest 10 day(s).
| Time | Temp. | Humidity | Pressure | Rain* | Wind** | Luminosity | Snow |
|---|---|---|---|---|---|---|---|
| 1788010900 | 20° C | 50% | 853.6 hPa | 0 mm | - | 279 W/m² | - |
| 1788010527 | 20° C | 51% | 853.6 hPa | 0 mm | - | 242 W/m² | - |
| 1788009926 | 20° C | 52% | 853.7 hPa | 0 mm | - | 286 W/m² | - |
| 1788009099 | 20° C | 52% | 853.7 hPa | 0 mm | - | 205 W/m² | - |
| 1788008727 | 20° C | 52% | 853.8 hPa | 0 mm | - | 264 W/m² | - |
| 1788008127 | 20° C | 52% | 853.7 hPa | 0 mm | - | 242 W/m² | - |
| 1788007300 | 20° C | 49% | 853.8 hPa | 0 mm | - | 315 W/m² | - |
| 1788006927 | 20° C | 50% | 853.9 hPa | 0 mm | - | 257 W/m² | - |
| 1788006327 | 20° C | 50% | 853.9 hPa | 0 mm | - | 220 W/m² | - |
| 1788005499 | 20° C | 50% | 853.8 hPa | 0 mm | - | 235 W/m² | - |
| 1788005127 | 20° C | 50% | 853.9 hPa | 0 mm | - | 338 W/m² | - |
| 1788004527 | 19.44° C | 48% | 854.1 hPa | 0 mm | - | 448 W/m² | - |
| 1788003700 | 19.44° C | 49% | 854.1 hPa | 0 mm | - | 404 W/m² | - |
| 1788003327 | 19.44° C | 54% | 854.2 hPa | 0 mm | - | 374 W/m² | - |
| 1788002727 | 18.89° C | 56% | 854.1 hPa | 0 mm | - | 308 W/m² | - |
| 1788001900 | 18.33° C | 57% | 854.1 hPa | 0 mm | - | 264 W/m² | - |
| 1788001527 | 18.33° C | 59% | 854.1 hPa | 0 mm | - | 220 W/m² | - |
| 1788000927 | 18.89° C | 59% | 854.1 hPa | 0 mm | - | 279 W/m² | - |
| 1788000100 | 18.89° C | 59% | 854.2 hPa | 0 mm | - | 330 W/m² | - |
| 1787999727 | 18.89° C | 64% | 854.2 hPa | 0 mm | - | 315 W/m² | - |
| 1787999127 | 18.33° C | 61% | 854.1 hPa | 0 mm | - | 382 W/m² | - |
| 1787998300 | 18.33° C | 64% | 854.1 hPa | 0 mm | - | 271 W/m² | - |
| 1787997926 | 18.33° C | 65% | 854.1 hPa | 0 mm | - | 404 W/m² | - |
| 1787997327 | 18.33° C | 68% | 854.1 hPa | 0 mm | - | 499 W/m² | - |
| 1787996500 | 17.78° C | 69% | 854.1 hPa | 0 mm | - | 301 W/m² | - |
* Rain latest hour (hover to see other rain measurements)
** Current wind speed in m/s (hover to see current wind gust speed)